TimeCST,TemperatureF,Dew PointF,Humidity,Sea Level PressureIn,VisibilityMPH,Wind Direction,Wind SpeedMPH,Gust SpeedMPH,PrecipitationIn,Events,Conditions,WindDirDegrees,DateUTC
12:12 AM,24.8,21.2,86,29.91,5.0,SE,11.5,-,N/A,Snow,Light Snow,140,2013-03-05 06:12:00
12:33 AM,24.8,21.2,86,29.91,5.0,SE,13.8,-,N/A,Snow,Light Snow,140,2013-03-05 06:33:00
12:53 AM,24.8,23.0,93,29.92,5.0,SE,10.4,-,N/A,Snow,Light Snow,140,2013-03-05 06:53:00
1:12 AM,24.8,23.0,93,29.92,3.0,SE,10.4,-,N/A,Snow,Light Snow,140,2013-03-05 07:12:00
1:53 AM,24.8,21.2,86,29.92,3.0,SE,6.9,-,N/A,Snow,Light Snow,140,2013-03-05 07:53:00
2:33 AM,24.8,21.2,86,29.92,3.0,SE,8.1,-,N/A,Snow,Light Snow,140,2013-03-05 08:33:00
2:52 AM,24.8,21.2,86,29.92,3.0,SE,8.1,-,N/A,Snow,Light Snow,140,2013-03-05 08:52:00
3:13 AM,24.8,21.2,86,29.92,2.5,SE,6.9,-,N/A,Snow,Light Snow,130,2013-03-05 09:13:00
3:33 AM,24.8,21.2,86,29.93,2.0,SE,4.6,-,N/A,,Overcast,130,2013-03-05 09:33:00
3:52 AM,24.8,21.2,86,29.93,2.0,ESE,4.6,-,0.01,,Overcast,120,2013-03-05 09:52:00
4:13 AM,23.0,21.2,93,29.93,2.5,ESE,4.6,-,N/A,,Overcast,110,2013-03-05 10:13:00
4:52 AM,23.0,21.2,93,29.95,1.8,ENE,3.5,-,N/A,Snow,Light Snow,70,2013-03-05 10:52:00
5:13 AM,23.0,21.2,93,29.96,1.5,NE,4.6,-,N/A,Snow,Light Snow,50,2013-03-05 11:13:00
5:33 AM,23.0,21.2,93,29.97,1.8,NE,5.8,-,N/A,Snow,Light Snow,50,2013-03-05 11:33:00
5:52 AM,23.0,21.2,93,29.98,1.8,NE,6.9,-,0.01,Snow,Light Snow,50,2013-03-05 11:52:00
6:13 AM,23.0,21.2,93,29.99,1.5,NE,8.1,-,N/A,Snow,Light Snow,50,2013-03-05 12:13:00
6:52 AM,23.0,21.2,93,30.01,1.8,NE,8.1,-,N/A,Snow,Light Snow,40,2013-03-05 12:52:00
7:13 AM,23.0,21.2,93,30.02,2.0,NE,8.1,-,N/A,Snow,Light Snow,40,2013-03-05 13:13:00
7:32 AM,23.0,21.2,93,30.02,3.0,NE,11.5,-,N/A,Snow,Light Snow,40,2013-03-05 13:32:00
7:52 AM,23.0,21.2,93,30.03,4.0,NNE,9.2,-,N/A,Snow,Light Snow,30,2013-03-05 13:52:00
8:13 AM,24.8,21.2,86,30.04,2.5,NNE,9.2,-,N/A,Snow,Light Snow,30,2013-03-05 14:13:00
8:32 AM,24.8,21.2,86,30.05,1.8,NNE,9.2,-,N/A,Snow,Light Snow,30,2013-03-05 14:32:00
8:53 AM,24.8,21.2,86,30.06,2.0,NNE,9.2,-,N/A,Snow,Light Snow,20,2013-03-05 14:53:00
9:13 AM,24.8,21.2,86,30.08,2.5,NNE,10.4,-,N/A,Snow,Light Snow,20,2013-03-05 15:13:00
9:32 AM,24.8,21.2,86,30.09,3.0,NNE,11.5,-,N/A,Snow,Light Snow,20,2013-03-05 15:32:00
9:53 AM,24.8,21.2,86,30.09,3.0,North,11.5,-,N/A,Snow,Light Snow,10,2013-03-05 15:53:00
10:13 AM,24.8,21.2,86,30.10,4.0,NNE,12.7,-,0.01,Snow,Light Snow,20,2013-03-05 16:13:00
10:32 AM,26.6,21.2,80,30.10,2.5,NNE,12.7,-,0.01,Snow,Light Snow,20,2013-03-05 16:32:00
10:53 AM,26.6,23.0,86,30.12,3.0,North,13.8,-,0.01,Snow,Light Snow,10,2013-03-05 16:53:00
11:13 AM,26.6,23.0,86,30.12,3.0,North,12.7,-,N/A,,Overcast,10,2013-03-05 17:13:00
11:32 AM,26.6,23.0,86,30.13,7.0,North,12.7,-,N/A,,Overcast,10,2013-03-05 17:32:00
11:53 AM,28.4,23.0,80,30.13,10.0,NNE,11.5,-,0.01,,Overcast,20,2013-03-05 17:53:00
12:13 PM,28.4,23.0,80,30.13,7.0,NNE,16.1,23.0,N/A,,Overcast,20,2013-03-05 18:13:00
12:32 PM,28.4,23.0,80,30.14,7.0,NNE,15.0,-,N/A,,Overcast,20,2013-03-05 18:32:00
12:53 PM,28.4,23.0,80,30.14,10.0,North,16.1,-,N/A,,Overcast,360,2013-03-05 18:53:00
1:12 PM,26.6,23.0,86,30.15,10.0,North,19.6,24.2,N/A,,Overcast,350,2013-03-05 19:12:00
1:32 PM,26.6,23.0,86,30.16,10.0,North,20.7,-,N/A,,Overcast,350,2013-03-05 19:32:00
1:53 PM,26.6,23.0,86,30.17,10.0,North,19.6,-,N/A,,Overcast,350,2013-03-05 19:53:00
2:12 PM,26.6,21.2,80,30.17,5.0,North,23.0,28.8,N/A,Snow,Light Snow,360,2013-03-05 20:12:00
2:32 PM,26.6,23.0,86,30.18,2.5,North,20.7,24.2,N/A,Snow,Light Snow,360,2013-03-05 20:32:00
2:53 PM,26.6,23.0,86,30.18,3.0,North,18.4,29.9,N/A,Snow,Light Snow,10,2013-03-05 20:53:00
3:12 PM,26.6,23.0,86,30.19,3.0,North,20.7,-,N/A,Snow,Light Snow,10,2013-03-05 21:12:00
3:33 PM,26.6,23.0,86,30.20,7.0,North,17.3,25.3,N/A,Snow,Light Snow,10,2013-03-05 21:33:00
3:52 PM,26.6,21.2,80,30.20,7.0,North,18.4,23.0,N/A,Snow,Light Snow,10,2013-03-05 21:52:00
4:12 PM,24.8,21.2,86,30.21,10.0,North,17.3,25.3,N/A,Snow,Light Snow,360,2013-03-05 22:12:00
4:32 PM,24.8,21.2,86,30.22,10.0,North,17.3,26.5,N/A,Snow,Light Snow,360,2013-03-05 22:32:00
4:52 PM,24.8,19.4,80,30.23,10.0,North,19.6,-,N/A,Snow,Light Snow,360,2013-03-05 22:52:00
5:13 PM,23.0,19.4,86,30.24,10.0,North,17.3,-,N/A,Snow,Light Snow,360,2013-03-05 23:13:00
5:33 PM,21.2,19.4,93,30.25,10.0,North,17.3,25.3,N/A,,Clear,360,2013-03-05 23:33:00
5:52 PM,21.2,19.4,93,30.26,10.0,North,16.1,-,N/A,,Clear,360,2013-03-05 23:52:00
6:13 PM,19.4,17.6,93,30.27,10.0,North,16.1,-,N/A,,Clear,360,2013-03-06 00:13:00
6:32 PM,19.4,17.6,93,30.28,10.0,North,13.8,-,N/A,,Clear,360,2013-03-06 00:32:00
6:52 PM,17.6,15.8,93,30.28,10.0,North,15.0,-,N/A,,Clear,360,2013-03-06 00:52:00
7:13 PM,17.6,15.8,93,30.28,10.0,North,13.8,-,N/A,,Clear,360,2013-03-06 01:13:00
7:32 PM,17.6,15.8,93,30.29,10.0,North,13.8,-,N/A,,Clear,360,2013-03-06 01:32:00
7:52 PM,17.6,15.8,93,30.30,10.0,North,16.1,-,N/A,,Clear,360,2013-03-06 01:52:00
8:13 PM,15.8,14.0,93,30.31,10.0,North,11.5,-,N/A,,Clear,350,2013-03-06 02:13:00
8:32 PM,17.6,14.0,86,30.31,10.0,North,15.0,-,N/A,,Clear,350,2013-03-06 02:32:00
8:53 PM,15.8,12.2,86,30.31,10.0,North,11.5,-,N/A,,Clear,360,2013-03-06 02:53:00
9:13 PM,15.8,12.2,86,30.31,10.0,North,10.4,-,N/A,,Clear,360,2013-03-06 03:13:00
9:32 PM,14.0,12.2,93,30.31,10.0,North,10.4,-,N/A,,Clear,360,2013-03-06 03:32:00
9:53 PM,14.0,12.2,93,30.33,10.0,North,10.4,-,N/A,,Clear,360,2013-03-06 03:53:00
10:13 PM,14.0,12.2,93,30.33,10.0,North,11.5,-,N/A,,Scattered Clouds,360,2013-03-06 04:13:00
10:32 PM,17.6,15.8,93,30.33,10.0,North,12.7,-,N/A,,Overcast,360,2013-03-06 04:32:00
10:53 PM,19.4,17.6,93,30.33,10.0,North,12.7,-,N/A,,Overcast,360,2013-03-06 04:53:00
11:13 PM,19.4,15.8,86,30.34,10.0,North,15.0,-,N/A,,Overcast,360,2013-03-06 05:13:00
11:32 PM,17.6,15.8,93,30.34,10.0,North,11.5,-,N/A,,Overcast,360,2013-03-06 05:32:00
11:53 PM,17.6,14.0,86,30.34,10.0,North,9.2,-,N/A,,Mostly Cloudy,360,2013-03-06 05:53:00